Weather History for VTSP - May, 2013

Change the Weather History Date:

Friday, May 3, 2013

  Actual Average Record
Temperature  
Mean Temperature 80 °F -  
Max Temperature 87 °F 89 °F 98 °F (2002)
Min Temperature 74 °F 78 °F 72 °F (2014)
Cooling Degree Days 16    
Growing Degree Days 30 (Base 50)    
Moisture  
Dew Point 75 °F    
Average Humidity 83    
Maximum Humidity 97    
Minimum Humidity 61    
Precipitation  
Precipitation 1.30 in 0.44 in - ()
Sea Level Pressure  
Sea Level Pressure 29.76 in    
Wind  
Wind Speed 5 mph ()    
Max Wind Speed 17 mph    
Max Gust Speed 29 mph    
Visibility 4.8 miles    
Events Rain , Thunderstorm    
Averages and records for this station are not official NWS values.
T = Trace of Precipitation, MM = Missing Value Source: Averaged Metar Reports

Daily Weather History Graph

Daily Weather History Graph

Search for Another Location

Airport or City:

Trip Planner

Search our weather history database for the weather conditions in past years. The results will help you decide how hot, cold, wet, or windy it might be!

Date:

Astronomy

May. 03, 2013 Rise Set
Actual Time 6:11 AM ICT 6:36 PM ICT
Civil Twilight 5:49 AM ICT 6:58 PM ICT
Nautical Twilight 5:23 AM ICT 7:23 PM ICT
Astronomical Twilight 4:58 AM ICT 7:49 PM ICT
Moon 12:58 AM ICT 1:10 PM ICT
Length of Visible Light 13h 08m
Length of Day
12h 25m
Last Quarter, 42% of the Moon is Illuminated
May 3
Last Quarter
May 10
New
May 18
First Quarter
May 25
Full
Jun 1
Last Quarter

Hourly Weather History & Observations

Time (ICT) Temp. Heat Index Dew Point Humidity Pressure Visibility Wind Dir Wind Speed Gust Speed Precip Events Conditions
12:00 AM 84.2 °F 92.3 °F 75.2 °F 74% 29.77 in 5.6 mi WNW 8.1 mph - N/A   Mostly Cloudy
12:30 AM 84.2 °F 92.3 °F 75.2 °F 74% 29.77 in 5.6 mi WNW 8.1 mph - N/A   Mostly Cloudy
1:00 AM 86 °F - 74 °F 61% 29.73 in 6 mi NW 5.8 mph - -   Scattered Clouds
1:00 AM 84.2 °F 92.3 °F 75.2 °F 74% 29.77 in 5.6 mi WNW 6.9 mph - N/A   Mostly Cloudy
1:30 AM 84.2 °F 90.9 °F 73.4 °F 70% 29.77 in 5.6 mi West 10.4 mph - N/A   Mostly Cloudy
2:00 AM 84.2 °F 90.9 °F 73.4 °F 70% 29.74 in 5.0 mi WSW 6.9 mph - N/A   Mostly Cloudy
2:30 AM 82.4 °F 89.5 °F 75.2 °F 79% 29.74 in 5.0 mi WSW 5.8 mph - N/A   Mostly Cloudy
3:00 AM 80.6 °F 86.2 °F 75.2 °F 84% 29.74 in 5.0 mi Variable 1.2 mph - N/A   Mostly Cloudy
3:30 AM 82.4 °F 89.5 °F 75.2 °F 79% 29.71 in 5.0 mi West 6.9 mph - N/A   Mostly Cloudy
4:00 AM 82.4 °F 89.5 °F 75.2 °F 79% 29.71 in 5.0 mi WNW 4.6 mph - N/A   Mostly Cloudy
4:30 AM 82.4 °F 89.5 °F 75.2 °F 79% 29.74 in 5.0 mi West 5.8 mph - N/A   Mostly Cloudy
5:00 AM 80.6 °F 86.2 °F 75.2 °F 84% 29.74 in 5.0 mi Calm Calm - N/A   Mostly Cloudy
5:30 AM 80.6 °F 86.2 °F 75.2 °F 84% 29.74 in 5.0 mi Calm Calm - N/A   Mostly Cloudy
6:00 AM 80.6 °F 86.2 °F 75.2 °F 84% 29.74 in 5.0 mi Variable 1.2 mph - N/A   Mostly Cloudy
6:30 AM 78.8 °F - 75.2 °F 89% 29.77 in 1.9 mi North 11.5 mph 23.0 mph N/A Rain Rain
7:00 AM 77 °F - 76 °F 94% 29.73 in 5 mi SW 5.8 mph - - Rain Light Rain
7:00 AM 77.0 °F - 73.4 °F 89% 29.77 in 3.1 mi Variable 5.8 mph - N/A Rain Rain
7:30 AM 78.8 °F - 75.2 °F 89% 29.77 in 4.3 mi WNW 3.5 mph - N/A Rain Light Rain
8:00 AM 80.6 °F 87.1 °F 77.0 °F 89% 29.80 in 5.0 mi Variable 1.2 mph - N/A   Mostly Cloudy
9:00 AM 84.2 °F 96.1 °F 78.8 °F 84% 29.83 in 5.0 mi North 5.8 mph - N/A   Mostly Cloudy
9:30 AM 87.8 °F 99.7 °F 77.0 °F 70% 29.80 in 5.0 mi West 6.9 mph - N/A   Mostly Cloudy
10:00 AM 82.4 °F 89.5 °F 75.2 °F 79% 29.83 in 4.3 mi WSW 9.2 mph - N/A   Mostly Cloudy
10:30 AM 82.4 °F 88.2 °F 73.4 °F 74% 29.83 in 5.0 mi Variable 3.5 mph - N/A Thunderstorm Thunderstorm
11:00 AM 84.2 °F 94.1 °F 77.0 °F 79% 29.83 in 5.0 mi South 3.5 mph - N/A   Mostly Cloudy
11:30 AM 86.0 °F 96.9 °F 77.0 °F 74% 29.80 in 5.0 mi West 6.9 mph - N/A   Mostly Cloudy
12:00 PM 87.8 °F 99.7 °F 77.0 °F 70% 29.80 in 4.3 mi West 9.2 mph - N/A Thunderstorm Thunderstorm
1:00 PM 78 °F - 77 °F 97% 29.79 in 2 mi West 13.8 mph - - Rain , Thunderstorm Thunderstorms and Rain
1:00 PM 77.0 °F - 75.2 °F 94% 29.80 in 0.9 mi WNW 17.3 mph 28.8 mph N/A Rain , Thunderstorm Thunderstorms and Rain
1:30 PM 75.2 °F - 73.4 °F 94% 29.77 in 1.9 mi NNW 8.1 mph - N/A Rain Rain
2:00 PM 77.0 °F - 73.4 °F 89% 29.77 in 3.1 mi Variable 3.5 mph - N/A Rain Rain
2:30 PM 78.8 °F - 75.2 °F 89% 29.74 in 4.3 mi Calm Calm - N/A   Mostly Cloudy
3:00 PM 78.8 °F - 75.2 °F 89% 29.74 in 5.0 mi WNW 8.1 mph - N/A   Mostly Cloudy
3:30 PM 80.6 °F 86.2 °F 75.2 °F 84% 29.71 in 5.0 mi NW 5.8 mph - N/A   Mostly Cloudy
4:30 PM 84.2 °F 92.3 °F 75.2 °F 74% 29.71 in 5.0 mi Variable 3.5 mph - N/A   Mostly Cloudy
5:00 PM 84.2 °F 92.3 °F 75.2 °F 74% 29.71 in 5.6 mi Variable 2.3 mph - N/A   Mostly Cloudy
5:30 PM 84.2 °F 90.9 °F 73.4 °F 70% 29.71 in 5.6 mi West 6.9 mph - N/A   Mostly Cloudy
6:00 PM 82.4 °F 89.5 °F 75.2 °F 79% 29.71 in 5.6 mi WNW 6.9 mph - N/A   Mostly Cloudy
6:30 PM 80.6 °F 86.2 °F 75.2 °F 84% 29.71 in 5.6 mi WNW 4.6 mph - N/A   Mostly Cloudy
7:00 PM 83 °F - 78 °F 82% 29.70 in 6 mi West 4.6 mph - -   Mist
7:00 PM 80.6 °F 87.1 °F 77.0 °F 89% 29.74 in 5.6 mi West 4.6 mph - N/A   Mostly Cloudy
7:30 PM 80.6 °F 86.2 °F 75.2 °F 84% 29.74 in 5.6 mi NW 3.5 mph - N/A   Mostly Cloudy
8:00 PM 78.8 °F - 75.2 °F 89% 29.74 in 5.6 mi Variable 1.2 mph - N/A   Mostly Cloudy
8:30 PM 78.8 °F - 75.2 °F 89% 29.77 in 5.0 mi Calm Calm - N/A   Mostly Cloudy
9:00 PM 78.8 °F - 75.2 °F 89% 29.77 in 5.0 mi Calm Calm - N/A   Mostly Cloudy
9:30 PM 78.8 °F - 77.0 °F 94% 29.80 in 5.0 mi Calm Calm - N/A   Mostly Cloudy
10:00 PM 78.8 °F - 77.0 °F 94% 29.80 in 5.0 mi Calm Calm - N/A   Mostly Cloudy
10:30 PM 78.8 °F - 75.2 °F 89% 29.80 in 5.0 mi Calm Calm - N/A   Mostly Cloudy
11:00 PM 77.0 °F - 75.2 °F 94% 29.80 in 5.0 mi Variable 2.3 mph - N/A   Mostly Cloudy
11:30 PM 77.0 °F - 75.2 °F 94% 29.80 in 5.0 mi Calm Calm - N/A   Mostly Cloudy